GW5170 Weather Reports


time (UTC)temp
F
wind
direction
speed
knots
gust
knots
rain 1hr
in
rain 24hr
in
rain mn
in
humidity
%
barometer
mb
20260831192035 90 257 4.3 6.1 0.00 0.00 0.00 61 1013.4
20260831191531 90 265 1.7 2.6 0.00 0.00 0.00 60 1013.3
20260831191027 89 237 3.5 3.5 0.00 0.00 0.00 60 1013.5
20260831190522 89 347 3.5 5.2 0.00 0.00 0.00 61 1013.2
20260831190021 90 285 7.0 8.7 0.00 0.00 0.00 61 1013.3
20260831185517 90 260 1.7 2.6 0.00 0.00 0.00 60 1013.3
20260831185012 89 266 3.5 3.5 0.00 0.00 0.00 61 1013.3
20260831184507 88 247 5.2 6.1 0.00 0.00 0.00 63 1013.3
20260831184002 89 329 2.6 2.6 0.00 0.00 0.00 61 1013.5
20260831183501 89 327 3.5 5.2 0.00 0.00 0.00 60 1013.5
20260831183001 89 313 2.6 2.6 0.00 0.00 0.00 61 1013.4
20260831182456 89 264 5.2 6.1 0.00 0.00 0.00 59 1013.5
20260831181951 87 294 1.7 2.6 0.00 0.00 0.00 62 1013.6
20260831181446 88 262 6.1 7.0 0.00 0.00 0.00 62 1013.6
20260831180941 88 276 5.2 5.2 0.00 0.00 0.00 62 1013.9
20260831180435 87 263 3.5 6.1 0.00 0.00 0.00 61 1014.1
20260831175934 87 341 3.5 3.5 0.00 0.00 0.00 62 1014.2
20260831175431 87 330 1.7 2.6 0.00 0.00 0.00 63 1013.7
20260831174926 88 295 2.6 2.6 0.00 0.00 0.00 60 1014.0
20260831174422 87 312 1.7 2.6 0.00 0.00 0.00 63 1014.0
20260831173921 86 285 4.3 5.2 0.00 0.00 0.00 64 1013.6
20260831173420 86 269 4.3 5.2 0.00 0.00 0.00 64 1013.7
20260831172916 86 269 2.6 2.6 0.00 0.00 0.00 63 1013.6
20260831172412 86 267 2.6 2.6 0.00 0.00 0.00 62 1013.7
20260831171911 87 254 3.5 5.2 0.00 0.00 0.00 60 1013.6
20260831171408 88 306 3.5 3.5 0.00 0.00 0.00 60 1013.9
20260831170904 87 242 1.7 2.6 0.00 0.00 0.00 61 1014.0
20260831170400 86 293 2.6 2.6 0.00 0.00 0.00 64 1014.0
20260831165856 85 210 2.6 3.5 0.00 0.00 0.00 64 1014.1
20260831165352 86 305 5.2 7.0 0.00 0.00 0.00 64 1014.0
20260831164848 85 347 3.5 6.1 0.00 0.00 0.00 64 1014.3
20260831164344 86 242 4.3 7.0 0.00 0.00 0.00 63 1014.2
20260831163840 85 272 5.2 7.0 0.00 0.00 0.00 65 1014.3
20260831163335 85 252 2.6 5.2 0.00 0.00 0.00 64 1014.1
20260831162833 85 312 3.5 5.2 0.00 0.00 0.00 65 1014.1
20260831162329 85 252 4.3 6.1 0.00 0.00 0.00 66 1014.2
20260831161828 85 277 3.5 3.5 0.00 0.00 0.00 66 1014.0
20260831161324 84 283 3.5 3.5 0.00 0.00 0.00 66 1014.0
20260831160819 84 256 2.6 2.6 0.00 0.00 0.00 65 1014.1
20260831160314 84 341 2.6 3.5 0.00 0.00 0.00 66 1014.1
20260831155814 84 259 3.5 3.5 0.00 0.00 0.00 66 1014.0
20260831155309 84 336 0.9 0.9 0.00 0.00 0.00 66 1014.1
20260831154805 83 275 3.5 5.2 0.00 0.00 0.00 66 1013.9
20260831154301 83 302 5.2 6.1 0.00 0.00 0.00 66 1013.6
20260831153759 83 274 6.1 7.8 0.00 0.00 0.00 66 1013.7
20260831153255 83 189 4.3 7.0 0.00 0.00 0.00 67 1013.7
20260831152751 84 202 7.8 8.7 0.00 0.00 0.00 66 1014.0
20260831152247 84 277 3.5 5.2 0.00 0.00 0.00 65 1013.6
20260831151741 84 224 7.0 8.7 0.00 0.00 0.00 65 1013.4
20260831151241 84 238 7.0 8.7 0.00 0.00 0.00 65 1013.3
20260831150736 84 281 5.2 5.2 0.00 0.00 0.00 65 1013.3
20260831150231 83 246 7.8 8.7 0.00 0.00 0.00 66 1013.2
20260831145730 83 252 7.0 8.7 0.00 0.00 0.00 66 1013.1
20260831145227 83 277 7.0 11.3 0.00 0.00 0.00 66 1013.1
20260831144722 83 207 5.2 7.8 0.00 0.00 0.00 66 1013.1
20260831144219 83 270 3.5 3.5 0.00 0.00 0.00 66 1013.1
20260831143717 82 281 4.3 5.2 0.00 0.00 0.00 67 1013.1
20260831143213 82 309 7.0 9.6 0.00 0.00 0.00 68 1013.0
20260831142709 82 264 6.1 7.8 0.00 0.00 0.00 69 1013.1
20260831142204 82 243 5.2 7.0 0.00 0.00 0.00 68 1013.0
20260831141703 81 285 3.5 5.2 0.00 0.00 0.00 70 1013.1
20260831141158 81 261 3.5 5.2 0.00 0.00 0.00 70 1012.8
20260831140658 80 213 6.1 8.7 0.00 0.00 0.00 70 1012.7
20260831140153 80 273 7.0 7.8 0.00 0.00 0.00 71 1013.1
20260831135650 79 230 3.5 6.1 0.00 0.00 0.00 72 1013.0
20260831135146 79 263 4.3 6.1 0.00 0.00 0.00 73 1012.9
20260831134642 79 242 7.0 8.7 0.00 0.00 0.00 73 1012.8
20260831134138 79 336 4.3 6.1 0.00 0.00 0.00 73 1012.8
20260831133636 78 220 5.2 6.1 0.00 0.00 0.00 74 1013.0
20260831133131 78 265 2.6 3.5 0.00 0.00 0.00 74 1013.0
20260831132627 78 242 4.3 6.1 0.00 0.00 0.00 74 1013.0
20260831132126 77 224 3.5 3.5 0.00 0.00 0.00 75 1013.1
20260831131621 77 273 4.3 5.2 0.00 0.00 0.00 76 1013.0
20260831131118 77 245 1.7 1.7 0.00 0.00 0.00 75 1012.6
20260831130613 77 256 5.2 6.1 0.00 0.00 0.00 75 1012.9
20260831130109 77 255 4.3 6.1 0.00 0.00 0.00 75 1012.8
20260831125606 77 252 2.6 3.5 0.00 0.00 0.00 75 1012.8
20260831125102 77 257 3.5 3.5 0.00 0.00 0.00 76 1012.9
20260831124559 76 328 1.7 1.7 0.00 0.00 0.00 76 1012.9
20260831124054 76 268 2.6 2.6 0.00 0.00 0.00 76 1012.7
20260831123553 76 313 2.6 3.5 0.00 0.00 0.00 77 1012.8
20260831123048 75 246 2.6 2.6 0.00 0.00 0.00 77 1012.8
20260831122548 75 260 1.7 2.6 0.00 0.00 0.00 77 1012.6
20260831122044 75 320 1.7 1.7 0.00 0.00 0.00 78 1012.7
20260831121538 75 335 0.9 1.7 0.00 0.00 0.00 78 1012.6
20260831121034 75 238 2.6 2.6 0.00 0.00 0.00 78 1012.7
20260831120533 75 308 0.9 1.7 0.00 0.00 0.00 79 1012.5
20260831120029 74 341 0.0 0.9 0.00 0.00 0.00 79 1012.5
20260831115525 74 260 1.7 2.6 0.00 0.00 0.00 78 1012.3
20260831115021 74 338 1.7 1.7 0.00 0.00 0.00 79 1012.4
20260831114519 74 340 1.7 1.7 0.00 0.00 0.00 79 1012.5
20260831114014 74 352 1.7 1.7 0.00 0.00 0.00 79 1012.3
20260831113513 74 293 1.7 1.7 0.00 0.00 0.00 79 1012.4
20260831113010 74 285 0.9 1.7 0.00 0.00 0.00 79 1012.3
20260831112503 74 203 2.6 2.6 0.00 0.00 0.00 79 1012.4
20260831111958 74 255 1.7 2.6 0.00 0.00 0.00 79 1012.5
20260831111454 74 347 0.9 1.7 0.00 0.00 0.00 79 1012.5
20260831110949 74 208 2.6 2.6 0.00 0.00 0.00 80 1012.4
20260831110444 74 325 1.7 2.6 0.00 0.00 0.00 79 1012.6
20260831105943 74 252 2.6 2.6 0.00 0.00 0.00 80 1012.8
20260831105439 74 267 0.9 1.7 0.00 0.00 0.00 79 1012.6
20260831104939 74 283 1.7 1.7 0.00 0.00 0.00 79 1012.6
20260831104435 74 218 2.6 2.6 0.00 0.00 0.00 79 1012.6
20260831103931 74 251 1.7 1.7 0.00 0.00 0.00 79 1012.7
20260831103426 74 349 1.7 1.7 0.00 0.00 0.00 79 1012.7
20260831102921 74 289 1.7 2.6 0.00 0.00 0.00 79 1012.8
20260831102416 74 252 1.7 1.7 0.00 0.00 0.00 79 1012.8
20260831101911 74 308 0.9 0.9 0.00 0.00 0.00 79 1012.8
20260831101406 74 289 1.7 1.7 0.00 0.00 0.00 79 1012.8
20260831100903 74 276 1.7 1.7 0.00 0.00 0.00 79 1012.7
20260831100358 74 207 1.7 1.7 0.00 0.00 0.00 79 1012.9
20260831095858 74 298 1.7 1.7 0.00 0.00 0.00 79 1012.8
20260831095357 74 225 3.5 3.5 0.00 0.00 0.00 79 1012.9
20260831094853 74 294 1.7 2.6 0.00 0.00 0.00 79 1012.9
20260831094348 74 341 1.7 2.6 0.00 0.00 0.00 79 1012.8
20260831093844 74 231 2.6 2.6 0.00 0.00 0.00 79 1013.0
20260831093339 74 312 1.7 1.7 0.00 0.00 0.00 79 1013.0
20260831092836 74 315 1.7 1.7 0.00 0.00 0.00 79 1012.9
20260831092331 74 306 1.7 1.7 0.00 0.00 0.00 79 1012.9
20260831091825 74 287 0.9 1.7 0.00 0.00 0.00 79 1013.0
20260831091316 74 308 1.7 1.7 0.00 0.00 0.00 79 1013.0
20260831090811 74 219 1.7 1.7 0.00 0.00 0.00 79 1013.1
20260831090306 74 205 2.6 2.6 0.00 0.00 0.00 79 1013.1
20260831085802 74 221 1.7 2.6 0.00 0.00 0.00 79 1013.2
20260831085252 74 340 1.7 2.6 0.00 0.00 0.00 78 1013.1
20260831084746 74 222 3.5 3.5 0.00 0.00 0.00 78 1012.9
20260831084243 74 234 2.6 3.5 0.00 0.00 0.00 79 1012.9
20260831083738 74 322 1.7 1.7 0.00 0.00 0.00 79 1013.1
20260831083234 74 198 2.6 2.6 0.00 0.00 0.00 79 1012.9
20260831082732 74 217 3.5 5.2 0.00 0.00 0.00 80 1012.9
20260831082228 74 277 1.7 2.6 0.00 0.00 0.00 80 1012.9
20260831081723 74 318 1.7 3.5 0.00 0.00 0.00 80 1012.8
20260831081219 74 265 1.7 1.7 0.00 0.00 0.00 81 1012.8
20260831080714 74 321 1.7 2.6 0.00 0.00 0.00 81 1012.8
20260831080213 74 196 3.5 3.5 0.00 0.00 0.00 81 1012.8
20260831075709 74 236 1.7 2.6 0.00 0.00 0.00 81 1012.7
20260831075205 74 282 1.7 1.7 0.00 0.00 0.00 81 1012.9
20260831074704 74 314 1.7 1.7 0.00 0.00 0.00 81 1012.7
20260831074159 74 309 0.9 1.7 0.00 0.00 0.00 81 1012.7
20260831073654 74 203 1.7 1.7 0.00 0.00 0.00 81 1012.7
20260831073153 74 227 2.6 2.6 0.00 0.00 0.00 81 1012.8
20260831072649 74 181 0.9 1.7 0.00 0.00 0.00 82 1012.9
20260831072145 74 206 2.6 2.6 0.00 0.00 0.00 82 1013.0
20260831071644 74 220 2.6 3.5 0.00 0.00 0.00 82 1013.1
20260831071139 74 306 1.7 1.7 0.00 0.00 0.00 82 1013.1
20260831070638 74 298 1.7 1.7 0.00 0.00 0.00 82 1013.2
20260831070133 74 340 0.9 2.6 0.00 0.00 0.00 83 1013.3
20260831065631 74 282 2.6 2.6 0.00 0.00 0.00 83 1013.2
20260831065125 74 235 2.6 3.5 0.00 0.00 0.00 84 1013.3
20260831064625 74 320 0.9 1.7 0.00 0.00 0.00 85 1013.4
20260831064121 74 329 1.7 1.7 0.00 0.00 0.00 85 1013.4
20260831063617 74 305 0.9 0.9 0.00 0.00 0.00 86 1013.5
20260831063112 74 16 1.7 1.7 0.00 0.00 0.00 86 1013.5
20260831062607 74 306 1.7 1.7 0.00 0.00 0.00 87 1013.5
20260831062106 73 250 1.7 1.7 0.00 0.00 0.00 88 1013.6
20260831061604 73 339 1.7 1.7 0.00 0.00 0.00 88 1013.5
20260831061100 73 161 1.7 2.6 0.00 0.00 0.00 88 1013.5
20260831060556 73 11 1.7 1.7 0.00 0.00 0.00 89 1013.5
20260831060050 73 318 0.9 1.7 0.00 0.00 0.00 89 1013.5
20260831055545 73 326 1.7 2.6 0.00 0.00 0.00 88 1013.5
20260831055041 74 345 1.7 1.7 0.00 0.00 0.00 88 1013.6
20260831054540 74 173 2.6 3.5 0.00 0.00 0.00 88 1013.5
20260831054039 74 147 1.7 2.6 0.00 0.00 0.00 88 1013.5
20260831053538 74 301 0.9 1.7 0.00 0.00 0.00 88 1013.7
20260831053033 74 206 3.5 6.1 0.00 0.00 0.00 88 1013.6
20260831052532 74 198 5.2 6.1 0.00 0.00 0.00 88 1013.4
20260831052026 74 328 0.9 1.7 0.00 0.00 0.00 88 1013.4
20260831051524 74 282 3.5 3.5 0.00 0.00 0.00 88 1013.5
20260831051024 74 330 0.9 0.9 0.00 0.00 0.00 88 1013.6
20260831050523 74 214 1.7 3.5 0.00 0.00 0.00 89 1013.5
20260831050022 75 197 2.6 2.6 0.00 0.30 0.30 88 1013.6
20260831045521 75 347 0.0 0.9 0.00 0.30 0.30 88 1013.9
20260831045017 75 325 0.0 0.9 0.00 0.30 0.30 87 1013.9
20260831044512 75 299 1.7 2.6 0.00 0.30 0.30 88 1013.9
20260831044007 75 324 0.9 0.9 0.00 0.30 0.30 88 1013.5
20260831043507 75 101 3.5 5.2 0.00 0.30 0.30 88 1013.7
20260831043002 75 171 2.6 3.5 0.00 0.30 0.30 88 1013.6
20260831042502 75 228 1.7 1.7 0.00 0.30 0.30 89 1013.6
20260831041957 75 92 4.3 6.1 0.00 0.30 0.30 89 1013.7
20260831041452 75 10 1.7 2.6 0.00 0.30 0.30 89 1013.7
20260831040951 75 186 3.5 3.5 0.00 0.30 0.30 89 1013.6
20260831040446 75 24 0.9 1.7 0.00 0.30 0.30 89 1013.9
20260831035943 75 260 3.5 6.1 0.00 0.30 0.30 88 1014.0
20260831035443 75 289 1.7 1.7 0.00 0.30 0.30 89 1014.1
20260831034938 74 350 0.9 1.7 0.00 0.30 0.30 89 1014.2
20260831034433 74 207 2.6 2.6 0.00 0.30 0.30 89 1014.1
20260831033928 74 213 3.5 5.2 0.00 0.30 0.30 90 1013.7
20260831033424 74 234 2.6 3.5 0.00 0.30 0.30 89 1013.9
20260831032920 74 210 4.3 5.2 0.00 0.30 0.30 89 1014.1
20260831032419 75 171 2.6 5.2 0.00 0.30 0.30 89 1014.2
20260831031915 75 343 2.6 3.5 0.00 0.30 0.30 88 1014.3
20260831031414 75 36 1.7 1.7 0.00 0.30 0.30 87 1014.5
20260831030908 75 95 2.6 3.5 0.00 0.30 0.30 87 1014.5
20260831030408 76 189 3.5 3.5 0.00 0.30 0.30 86 1014.3
20260831025906 76 236 2.6 2.6 0.00 0.30 0.30 86 1014.4
20260831025406 76 186 2.6 2.6 0.00 0.30 0.30 85 1014.4
20260831024902 75 159 2.6 2.6 0.00 0.30 0.30 86 1014.5
20260831024401 75 146 3.5 5.2 0.00 0.30 0.30 86 1014.4
20260831023901 75 359 0.9 1.7 0.00 0.30 0.30 87 1014.5
20260831023359 74 250 2.6 2.6 0.00 0.30 0.30 88 1014.5
20260831022855 74 3 0.0 0.0 0.00 0.30 0.30 89 1014.6
20260831022353 74 346 0.9 0.9 0.00 0.30 0.30 88 1014.6
20260831021848 74 353 0.0 0.9 0.00 0.30 0.30 88 1014.7
20260831021348 74 2 0.9 0.9 0.00 0.30 0.30 88 1014.3
20260831020844 74 344 0.0 0.9 0.00 0.30 0.30 88 1014.3
20260831020344 74 351 0.0 0.9 0.00 0.30 0.30 88 1014.5
20260831015839 74 8 0.9 1.7 0.00 0.30 0.30 88 1014.4
20260831015335 74 347 1.7 1.7 0.00 0.30 0.30 88 1014.4
20260831014835 74 92 0.9 1.7 0.00 0.30 0.30 88 1014.4
20260831014330 74 349 1.7 1.7 0.00 0.30 0.30 88 1014.2
20260831013826 74 40 1.7 2.6 0.00 0.30 0.30 88 1014.2
20260831013325 74 5 0.9 0.9 0.00 0.30 0.30 88 1014.2
20260831012820 74 75 1.7 2.6 0.00 0.30 0.30 88 1014.0
20260831012316 74 350 1.7 2.6 0.00 0.30 0.30 88 1014.0
20260831011815 73 91 3.5 3.5 0.00 0.30 0.30 89 1013.7
20260831011310 73 217 1.7 2.6 0.00 0.30 0.30 89 1013.9
20260831010801 73 84 2.6 2.6 0.00 0.30 0.30 89 1013.9
20260831010300 73 83 2.6 2.6 0.00 0.30 0.30 89 1014.0
20260831005756 73 43 3.5 5.2 0.00 0.30 0.30 89 1014.2
20260831005252 74 339 1.7 1.7 0.00 0.30 0.30 89 1014.2
20260831004746 74 96 4.3 5.2 0.00 0.30 0.30 89 1014.1
20260831004242 74 95 2.6 2.6 0.00 0.30 0.30 89 1014.1
20260831003738 74 153 3.5 5.2 0.00 0.30 0.30 88 1014.2
20260831003234 74 164 3.5 5.2 0.00 0.30 0.30 88 1014.3
20260831002733 74 228 2.6 2.6 0.00 0.30 0.30 88 1014.3
20260831002232 74 82 1.7 2.6 0.00 0.30 0.30 88 1014.2
20260831001729 74 61 2.6 3.5 0.00 0.30 0.30 88 1014.4
20260831001223 75 121 2.6 3.5 0.00 0.30 0.30 87 1014.4
20260831000720 75 101 2.6 2.6 0.00 0.30 0.30 86 1014.5
20260831000215 75 359 1.7 2.6 0.00 0.30 0.30 86 1014.8
20260830235714 75 134 2.6 3.5 0.00 0.30 0.30 85 1014.5
20260830235209 75 194 1.7 2.6 0.00 0.30 0.30 84 1014.7
20260830234704 75 14 1.7 1.7 0.00 0.30 0.30 85 1014.4
20260830234200 75 54 2.6 3.5 0.00 0.30 0.30 85 1014.5
20260830233655 75 87 4.3 6.1 0.00 0.30 0.30 85 1014.5
20260830233151 75 157 3.5 3.5 0.00 0.30 0.30 87 1014.7
20260830232646 75 61 1.7 2.6 0.00 0.30 0.30 87 1014.7
20260830232142 75 44 1.7 1.7 0.00 0.30 0.30 87 1015.0
20260830231638 74 336 2.6 3.5 0.00 0.30 0.30 86 1014.8
20260830231138 74 9 1.7 2.6 0.00 0.30 0.30 89 1014.8
20260830230633 74 237 2.6 3.5 0.00 0.30 0.30 89 1014.6
20260830230132 74 148 2.6 3.5 0.00 0.30 0.30 90 1014.6
20260830225628 74 149 3.5 5.2 0.00 0.30 0.30 89 1014.7
20260830225128 74 271 2.6 2.6 0.00 0.30 0.30 90 1014.7
20260830224627 74 347 0.0 0.0 0.00 0.30 0.30 90 1014.7
20260830224123 74 355 0.9 1.7 0.00 0.30 0.30 90 1014.5
20260830223620 74 355 0.9 0.9 0.00 0.30 0.30 90 1014.6
20260830223120 73 18 0.9 0.9 0.00 0.30 0.30 90 1014.4
20260830222620 73 8 0.0 0.0 0.00 0.30 0.30 90 1014.5
20260830222116 73 350 0.9 0.9 0.00 0.30 0.30 91 1014.7
20260830221612 73 1 0.9 1.7 0.00 0.30 0.30 91 1014.4
20260830221108 73 325 1.7 1.7 0.00 0.30 0.30 89 1014.7
20260830220603 73 350 0.9 0.9 0.00 0.30 0.30 89 1014.5
20260830220101 73 350 0.0 0.0 0.00 0.30 0.30 90 1014.4
20260830215600 72 351 0.0 0.0 0.00 0.30 0.30 91 1014.4
20260830215055 72 346 0.0 0.0 0.05 0.30 0.30 91 1014.4
20260830214550 73 153 3.5 3.5 0.05 0.30 0.30 90 1014.5
20260830214045 72 342 0.9 1.7 0.00 0.29 0.29 92 1014.6
20260830213540 72 315 1.7 1.7 0.00 0.29 0.29 92 1014.2
20260830213035 72 89 3.5 3.5 0.07 0.29 0.29 93 1014.3
20260830212530 72 340 0.0 0.0 0.19 0.29 0.29 95 1015.1
20260830212025 72 302 0.9 1.7 0.17 0.28 0.28 94 1014.5
20260830211520 72 309 2.6 2.6 0.12 0.26 0.26 93 1014.5
20260830211020 72 312 0.0 0.9 0.07 0.25 0.25 93 1013.9
20260830210515 72 69 1.7 1.7 0.14 0.25 0.25 92 1013.5
20260830210014 72 222 4.3 5.2 0.07 0.24 0.24 92 1013.4
20260830205512 72 120 2.6 2.6 0.05 0.23 0.23 93 1013.3
20260830205008 72 143 3.5 3.5 0.05 0.23 0.23 93 1013.5
20260830204506 72 293 2.6 3.5 0.07 0.22 0.22 92 1013.9
20260830204001 72 101 1.7 2.6 0.12 0.22 0.22 92 1013.9
20260830203457 72 190 7.8 12.2 0.12 0.21 0.21 92 1014.2
20260830202956 72 183 4.3 6.1 0.12 0.20 0.20 92 1014.3
20260830202451 72 202 5.2 6.1 0.12 0.19 0.19 91 1014.6
20260830201948 72 262 5.2 7.0 0.19 0.18 0.18 92 1014.4
20260830201446 72 217 7.0 8.7 0.17 0.17 0.17 93 1014.6
20260830200943 72 195 5.2 7.0 0.19 0.16 0.16 93 1015.0
20260830200442 72 212 6.1 7.0 0.19 0.14 0.14 93 1014.9
20260830195937 72 248 3.5 3.5 0.12 0.13 0.13 93 1015.6
20260830195432 72 307 1.7 1.7 0.07 0.11 0.11 92 1015.5
20260830194930 73 288 2.6 2.6 0.07 0.11 0.11 91 1015.7
20260830194430 72 313 0.9 0.9 0.00 0.10 0.10 91 1015.3
20260830193930 72 339 1.7 2.6 0.00 0.10 0.10 91 1015.4
20260830193428 73 310 1.7 1.7 0.00 0.10 0.10 91 1015.5
20260830192924 73 299 2.6 2.6 0.00 0.10 0.10 90 1015.4
20260830192420 72 291 1.7 2.6 0.00 0.10 0.10 90 1015.4